Conway, MA (01341)

2:45 PM EDT on July 26, 2016 (GMT -0400)
Whately Road | | Change Station
Active Advisory: Special Statement

Elev 830 ft 42.48 °N, 72.69 °W | Updated 39 minutes ago

Scattered Clouds
Scattered Clouds
87.4 °F
Feels Like 89 °F
N
3.0
Wind Variable Wind from North
Gusts 14.0 mph

Today
High -- | Low -- °F
--% Chance of Precip.
Yesterday
High -- | Low -- °F
Precip. -- in
Pressure 29.83 in
Visibility 10.0 miles
Clouds Scattered Clouds 6000 ft
Heat Index 89 °F
Dew Point 65 °F
Humidity 47%
Rainfall in
Snow Depth Not available.
5:37 AM 8:16 PM
Waning Gibbous, 52% visible
METAR KORE 261752Z AUTO 30011KT 10SM SCT060 31/15 A2984 RMK AO2 SLP102 T03060150 10311 20250 58003
Pressure 29.83 in
Visibility 10.0 miles
Clouds Scattered Clouds 6000 ft
Heat Index 89 °F
Dew Point 65 °F
Humidity 47%
Rainfall in
Snow Depth Not available.
5:37 AM 8:16 PM
Waning Gibbous, 52% visible
METAR KORE 261752Z AUTO 30011KT 10SM SCT060 31/15 A2984 RMK AO2 SLP102 T03060150 10311 20250 58003

10-Day Weather Forecast

Almanac

Astronomy

Jul. 26, 2016 Rise Set
Actual Time
Civil Twilight
Nautical Twilight
Astronomical Twilight
Moon
Length of Visible Light
Length of Day
Tomorrow will be .
, % of the Moon is Illuminated

Today's Extremes

State Highs State Lows

Community

WunderPhotos

Upload Photos

1,927,653 photos uploaded!

WunderBlog® & News

Nearby

Air Quality

  Air Quality AQ Index Pollutant
Not available.

Snow Depth

Station Depth Elevation

Earthquake Activity

City Distance Mag. Time & Date
Minimum magnitude displayed is 2.5.

Coastal Water Temperatures

Place Temperature

Stations

Nearby Weather Stations

Station Location Temp. Windchill Dew Point Humidity Wind Precip. Elev Updated Type
                   

Watches & Warnings

Special Statement
Issued: 7:27 AM EDT Jul. 26, 2016 – National Weather Service

... Elevated fire weather potential today and Wednesday...

Dry weather is expected today and Wednesday with minimum relative
humidity values near 30 percent. In addition... west winds will
gust around 20 mph around midday and the afternoon. These factors
combined with a lack of recent widespread rainfall will create an
elevated fire weather potential in interior sections of
Massachusetts... Rhode Island and Connecticut.


Dunten

727 am EDT Tue Jul 26 2016

... Elevated fire weather potential today and Wednesday...

Dry weather is expected today and Wednesday with minimum relative
humidity values near 30 percent. In addition... west winds will
gust around 20 mph around midday and the afternoon. These factors
combined with a lack of recent widespread rainfall will create an
elevated fire weather potential in interior sections of
Massachusetts... Rhode Island and Connecticut.


Dunten